User: anonymous   Login
Location: Newark
(52.3500°N, 175.9667°E)
Time: 15:26:14
(UTC+00:00)
Language:

Tiros 1 - Orbit

View from above orbital plane
View from above orbital plane
View from above satellite
View from above satellite

Ground track
Ground track

The orbit data is extracted from the following two-line orbital elements,

1    29U 60002B   21101.04558155 -.00000083  00000-0  18702-4 0  9991
2    29  48.3808 344.1293 0023676  65.0765 295.2604 14.74418577262571
Epoch (UTC): 11 April 2021 01:05:38
Eccentricity: 0.0023676
inclination: 48.3808°
perigee height: 630 km
apogee height: 663 km
right ascension of ascending node: 344.1293°
argument of perigee: 65.0765°
revolutions per day: 14.74418577
mean anomaly at epoch: 295.2604°
orbit number at epoch: 26257

The dashed part of the orbit path shows where the satellite is in the earth's shadow,  

DLR